Location: �terpigny
(49.8910°N, 2.9249°E)
Time: 04:22:44
(UTC+00:00)

Cosmos 332 Rocket - Pass Details

Date: 31 May 2022
Orbit: 681 x 703 km, 74.0° (Epoch: 06 July)

Event Time Altitude Azimuth Distance (km) Brightness Sun altitude
Exits shadow 02:09:04 - 263° (W) 2,650 6.4 -11.5°
Reaches altitude 10° 02:11:02 10° 279° (W) 2,127 6.1 -11.3°
Maximum altitude 02:13:54 16° 316° (NW) 1,783 6.0 -11.1°
Drops below altitude 10° 02:16:46 10° 353° (N) 2,136 7.0 -10.8°
Sets 02:20:01 0° 15° (NNE) 3,059 8.6 -10.5°
